Phoenix Deer Valley, AZ

10:15 AM MST on March 30, 2017 (GMT -0700)
Phoenix-Deer Valley Municipal

Weather History for KDVT - November, 2011

Change the Weather History Date:

Saturday, November 26, 2011

  Actual Average Record
Temperature  
Mean Temperature 62 °F -  
Max Temperature 78 °F 66 °F 80 °F (1998)
Min Temperature 46 °F 45 °F 37 °F (2010)
Degree Days  
Heating Degree Days 3    
Growing Degree Days 12 (Base 50)    
Moisture  
Dew Point 27 °F    
Average Humidity 39    
Maximum Humidity 71    
Minimum Humidity 7    
Precipitation  
Precipitation 0.00 in - - ()
Sea Level Pressure  
Sea Level Pressure 30.23 in    
Wind  
Wind Speed 5 mph (ENE)    
Max Wind Speed 14 mph    
Max Gust Speed -    
Visibility 10 miles    
Events      
Averages and records for this station are not official NWS values.
T = Trace of Precipitation, MM = Missing Value Source: NWS Daily Summary

Daily Weather History Graph

Daily Weather History Graph

Search for Another Location

Airport or City:

Trip Planner

Search our weather history database for the weather conditions in past years. The results will help you decide how hot, cold, wet, or windy it might be!

Date:

Astronomy

Nov. 26, 2011 Rise Set
Actual Time 7:10 AM MST 5:20 PM MST
Civil Twilight 6:43 AM MST 5:47 PM MST
Nautical Twilight 6:12 AM MST 6:18 PM MST
Astronomical Twilight 5:42 AM MST 6:48 PM MST
Moon 8:42 AM MST (11/26) 6:58 PM MST (11/26)
Length of Visible Light 11h 04m
Length of Day
10h 10m
Waxing Crescent, 3% of the Moon is Illuminated
Nov 26
Waxing Crescent
Dec 2
First Quarter
Dec 10
Full
Dec 17
Last Quarter
Dec 24
New

Hourly Weather History & Observations

Time (MST) Temp. Dew Point Humidity Pressure Visibility Wind Dir Wind Speed Gust Speed Precip Events Conditions
12:53 AM 53.1 °F 42.1 °F 66% 30.16 in 10.0 mi NNE 9.2 mph - N/A   Clear
1:53 AM 50.0 °F 39.9 °F 68% 30.17 in 10.0 mi Calm Calm - N/A   Clear
2:53 AM 51.1 °F 39.9 °F 66% 30.18 in 10.0 mi Calm Calm - N/A   Clear
3:53 AM 51.1 °F 39.9 °F 66% 30.18 in 10.0 mi Calm Calm - N/A   Clear
4:53 AM 50.0 °F 39.0 °F 66% 30.19 in 10.0 mi Calm Calm - N/A   Clear
5:53 AM 48.0 °F 37.9 °F 68% 30.19 in 10.0 mi Calm Calm - N/A   Clear
6:53 AM 46.9 °F 37.9 °F 71% 30.21 in 10.0 mi Calm Calm - N/A   Clear
7:53 AM 48.0 °F 37.9 °F 68% 30.24 in 10.0 mi East 6.9 mph - N/A   Clear
8:53 AM 55.0 °F 39.0 °F 55% 30.25 in 10.0 mi East 5.8 mph - N/A   Clear
9:53 AM 59.0 °F 41.0 °F 51% 30.26 in 10.0 mi South 3.5 mph - N/A   Clear
10:53 AM 63.0 °F 39.0 °F 41% 30.26 in 10.0 mi SSW 4.6 mph - N/A   Clear
11:53 AM 66.9 °F 30.9 °F 26% 30.24 in 10.0 mi SSW 4.6 mph - N/A   Clear
12:53 PM 71.1 °F 30.0 °F 22% 30.22 in 10.0 mi West 5.8 mph - N/A   Clear
1:53 PM 75.9 °F 19.9 °F 12% 30.19 in 10.0 mi ENE 10.4 mph - N/A   Clear
2:53 PM 78.1 °F 10.9 °F 8% 30.18 in 10.0 mi NNE 9.2 mph - N/A   Clear
3:53 PM 78.1 °F 8.1 °F 7% 30.19 in 10.0 mi NNE 9.2 mph - N/A   Clear
4:53 PM 75.0 °F 7.0 °F 7% 30.21 in 10.0 mi NNE 13.8 mph - N/A   Clear
7:53 PM 64.9 °F 10.9 °F 12% 30.27 in 10.0 mi NNE 8.1 mph - N/A   Clear
8:53 PM 60.1 °F 15.1 °F 17% 30.29 in 10.0 mi NNE 4.6 mph - N/A   Clear
9:53 PM 57.9 °F 14.0 °F 18% 30.30 in 10.0 mi ENE 3.5 mph - N/A   Clear
10:53 PM 60.1 °F 10.9 °F 14% 30.32 in 10.0 mi East 8.1 mph - N/A   Clear
11:53 PM 55.9 °F 12.0 °F 18% 30.31 in 10.0 mi NNE 10.4 mph - N/A   Clear